Location: *
(58.7167°N, 26.1833°E)
Time: 08:21:01
(UTC+00:00)

SL-8 Rocket - Pass Details

Date: 25 August 2019
Orbit: 957 x 990 km, 82.9° (Epoch: 16 September)

Event Time Altitude Azimuth Distance (km) Brightness Sun altitude
Rises 21:12:35 0° 346° (NNW) 3,716 8.7 -19.4°
Reaches altitude 10° 21:15:08 10° 344° (NNW) 2,760 7.6 -19.5°
Maximum altitude 21:21:24 67° 264° (W) 1,065 4.2 -19.7°
Enters shadow 21:24:28 31° 192° (SSW) 1,641 4.7 -19.8°
